Miscellaneous Local Product
Issued by NWS Hastings, NE

Home | Current Version | Previous Version | Graphics & Text | Print | Product List | Glossary On
Versions: 1 2 3 4 5 6 7 8 9 10 11 12 13 14 15 16 17 18 19 20 21 22 23 24 25 26 27 28 29 30 31 32 33 34 35 36 37 38 39 40 41 42 43 44 45 46 47 48 49 50
000
AXUS43 KGID 180402
MISGRI

GID CWA HOURLY WEATHER ROUNDUP
NATIONAL WEATHER SERVICE HASTINGS NE
1000 PM CST SAT FEB 17 2018

NOTE: "FAIR" INDICATES FEW OR NO CLOUDS BELOW 12,000 FEET WITH NO
SIGNIFICANT WEATHER AND/OR OBSTRUCTIONS TO VISIBILITY.

...SOUTH CENTRAL NEBRASKA...

CITY           SKY/WX    TMP DP  RH WIND       PRES   REMARKS
GRAND ISLAND   CLEAR     34  23  64 SE12      30.03F WCI  25
KEARNEY        CLEAR     32  24  72 S9        30.02F WCI  24
HASTINGS       CLEAR     34  22  61 SE7       30.04F WCI  28
ORD            CLEAR     33  26  75 SE12      29.98F WCI  24
YORK           CLEAR     30  25  80 SE8       30.06F WCI  23
AURORA         CLEAR     30  22  73 SE7       30.04F WCI  23
LEXINGTON      CLEAR     34  25  68 SE10      29.98F WCI  26
HOLDREGE       CLEAR     33  24  69 S12       30.01F WCI  24
HEBRON         CLEAR     30  22  70 SE5       30.09F WCI  26

...NEBRASKA PANHANDLE...

CITY           SKY/WX    TMP DP  RH WIND       PRES   REMARKS
CHADRON        CLOUDY    28  23  81 CALM      29.68F
ALLIANCE       MOCLDY    35  19  52 S16       29.74F WCI  25
SCOTTSBLUFF    MOCLDY    44  17  33 S16       29.74F
SIDNEY         CLEAR     37  16  42 S18       29.82F WCI  27

...WESTERN AND NORTH CENTRAL NEBRASKA...

CITY           SKY/WX    TMP DP  RH WIND       PRES   REMARKS
VALENTINE      MOCLDY    33  23  66 SE10      29.85F WCI  25
AINSWORTH      PTCLDY    32  25  74 S13G18    29.88F WCI  22
ONEILL         PTCLDY    31  27  84 SE12      29.97F WCI  22
BROKEN BOW     CLEAR     34  24  67 SE12      29.96F WCI  25
IMPERIAL       CLEAR     37  21  52 S17       29.92F WCI  27
NORTH PLATTE   CLEAR     38  20  48 SE10G17   29.92F WCI  31
MCCOOK         CLEAR     37  19  48 S15       29.97F WCI  28

...EASTERN NEBRASKA...

CITY           SKY/WX    TMP DP  RH WIND       PRES   REMARKS
NORFOLK        CLEAR     28  25  88 SE7       30.04F WCI  21
SO SIOUX CITY  CLOUDY    21  20  96 SE7       30.09F WCI  12
TEKAMAH        CLEAR     28  26  92 SE3       30.11F
COLUMBUS       CLEAR     31  27  85 SE6       30.09S WCI  25
ALBION         CLEAR     31  27  86 SE8       30.04F WCI  23
OMAHA EPPLEY   CLEAR     28  22  78 CALM      30.13F
OFFUTT AFB     CLEAR     23  21  93 CALM      30.12F
MILLARD        CLEAR     31  26  84 CALM      30.13S
LINCOLN        CLEAR     26  20  77 CALM      30.12F
NEBRASKA CITY  CLEAR     33  26  76 SE5       30.14S WCI  28
BEATRICE       CLEAR     34  24  66 E5        30.12F WCI  30
FALLS CITY     CLEAR     33  20  58 SE5       30.16S WCI  29

...NORTHERN KANSAS...

CITY           SKY/WX    TMP DP  RH WIND       PRES   REMARKS
GOODLAND       CLEAR     36  14  40 S23G31    29.94F WCI  24
HILL CITY      CLEAR     39  14  36 S10       30.05F WCI  32
NORTON         CLEAR     36  10  35 S12       30.02F WCI  27
PHILLIPSBURG   CLEAR     30  16  55 CALM      30.06F
SMITH CENTER   CLEAR     32  18  55 SE9       30.08S WCI  24
BELOIT         CLEAR     28  18  64 CALM      30.10F
HAYS           CLEAR     30  12  47 S9        30.09F WCI  22
RUSSELL        CLEAR     35  13  40 S9        30.09F WCI  28
CONCORDIA      CLEAR     34  16  47 S7        30.10S WCI  28
SALINA         CLEAR     33  13  43 S9        30.14S WCI  25
TOPEKA         CLEAR     30  19  63 CALM      30.17R



USA.gov is the U.S. government's official web portal to all federal, state and local government web resources and services.